Regional Weather Roundup
Issued by NWS Memphis, TN

Home | Current Version | Previous Version | Text Only | Print | Product List | Glossary On
Versions: 1 2 3 4 5 6 7 8 9 10 11 12 13 14 15 16 17 18 19 20 21 22 23 24 25 26 27 28 29 30 31 32 33 34 35 36 37 38 39 40 41 42 43 44 45 46 47 48 49 50
000
ASUS44 KMEG 282310
RWRMEG
MEMPHIS CWA HOURLY WEATHER ROUNDUP
NATIONAL WEATHER SERVICE MEMPHIS TN
600 PM CDT THU AUG 28 2014

...WEST TENNESSEE...

CITY           SKY/WX    TMP DP  RH WIND       PRES   REMARKS
MEMPHIS INTL   PTSUNNY   91  64  40 SW9       29.94S HX  92
NWS MEMPHIS      N/A     92 N/A N/A MISG        N/A
JACKSON        SUNNY     89  68  49 CALM      29.95S HX  93
LEXINGTON      SUNNY     91  66  43 S6        29.95S HX  94
SAVANNAH       SUNNY     90  70  51 S3        29.96S HX  95
DYERSBURG      MOSUNNY   88  66  48 NW5       29.96R HX  90
UNION CITY     MOSUNNY   81  73  78 NE8       29.97R
PARIS          SUNNY     84  72  65 N9        29.98R
HUNTINGDON     SUNNY     90  70  51 SW3       29.96R HX  95


...EASTERN ARKANSAS...

CITY           SKY/WX    TMP DP  RH WIND       PRES   REMARKS
JONESBORO      SUNNY     91  66  43 SW6       29.93S HX  93
WEST MEMPHIS   MOSUNNY   90  66  45 SW3       29.92S HX  92
BATESVILLE     MOSUNNY   93  61  33 SE8       29.92S HX  93
NEWPORT        SUNNY     91  67  45 SE8       29.93F HX  94
WALNUT RIDGE   SUNNY     91  63  38 S8        29.92S HX  92
BLYTHEVILLE    SUNNY     88  75  65 NE5       29.94F HX  97
SEARCY         SUNNY     92  66  42 MISG      29.92F HX  94
STUTTGART      SUNNY     90  64  43 E6        29.93F HX  91
PINE BLUFF     SUNNY     91  66  43 SE3       29.90F HX  93
MONTICELLO     SUNNY     92  58  31 E5        29.91F HX  91


...NORTH MISSISSIPPI...

CITY           SKY/WX    TMP DP  RH WIND       PRES   REMARKS
TUPELO         MOSUNNY   91  59  33 MISG      29.94S HX  90
OLIVE BRANCH   PTSUNNY   90  64  43 S7        29.94F HX  91
CLARKSDALE     SUNNY     91  64  40 CALM      29.93F HX  93
CORINTH        MOSUNNY   90  68  48 S7        29.94S HX  93
GRENADA        SUNNY     88  61  40 NW3       29.93F
GREENWOOD      SUNNY     88  68  51 CALM      29.92F HX  91
COLUMBUS       MOSUNNY   94  56  27 SW5       29.93F HX  92
STARKVILLE     FAIR      91  59  33 CALM      29.93S HX  90
GOLDEN TRIANGL MOSUNNY   91  59  33 E9        29.94F HX  90


...SOUTHEAST MISSOURI...

CITY           SKY/WX    TMP DP  RH WIND       PRES   REMARKS
WEST PLAINS    MOSUNNY   90  59  35 S9        29.96F
POPLAR BLUFF   MOSUNNY   90  64  42 S6        29.94R HX  91
CAPE GIRARDEAU CLOUDY    75  70  84 E9        29.97R


...NORTHWEST ALABAMA...

CITY           SKY/WX    TMP DP  RH WIND       PRES   REMARKS
MUSCLE SHOALS  SUNNY     87  68  52 CALM      29.96S HX  90


...MIDDLE TENNESSEE...

CITY           SKY/WX    TMP DP  RH WIND       PRES   REMARKS
NASHVILLE      PTSUNNY   89  71  55 NE8       29.97R HX  95
CLARKSVILLE    PTSUNNY   79  74  84 N6        29.98S
DICKSON        PTSUNNY   82  73  74 NW3       29.99R
COLUMBIA         N/A     91  72  52 E3        29.96R VSB 3/4 HX  98
LEWISBURG      SUNNY     90  68  48 SE6       29.97R HX  94


...WESTERN KENTUCKY...

CITY           SKY/WX    TMP DP  RH WIND       PRES   REMARKS
PADUCAH        LGT RAIN  75  71  87 N7        29.99F FOG
FORT CAMPBELL  PTSUNNY   79  79  99 N7        29.99S


...CENTRAL ARKANSAS...

CITY           SKY/WX    TMP DP  RH WIND       PRES   REMARKS
LITTLE ROCK    MOSUNNY   91  62  37 S7        29.91F HX  91


SKY/WX REPORTED AS FAIR MEANS FEW OR NO CLOUDS BELOW
12 THOUSAND FEET.




USA.gov is the U.S. government's official web portal to all federal, state and local government web resources and services.